Погода в Великодворском

Россия / Владимирская область     55°14′57″N   40°39′54″E
темп.,
°C
ветер,
м/с
пор.,
м/с
влажн.,
%
обл.,
%
осадки,
мм/ч
давл.,
гПа
погр.,
м
7 марта, вс
вс700:00−13зюз239418 0.0 101448
03:00−14юз36939 0.0 1012132
06:00−13ююз4109333 0.0 1008267
09:00−8ююз6148267 0.0 1004782
12:00−6ююз71392100 1.2 10001052
15:00−4юз71493100 2.8 9951120
18:00−2юз61395100 2.1 9931045
21:00−7з3588100 3.3 99499
8 марта, пн
пн800:00−9зюз41289100 0.0 995311
03:00−8зюз41194100 0.0 997394
06:00−10зюз4119384 0.0 995385
09:00−7зюз489392 0.2 996647
12:00−4з5979100 0.6 9971288
15:00−5зсз5877100 1.2 9991269
18:00−8сз378780 0.3 1001142
21:00−11сз3109462 0.3 1005311
9 марта, вт
вт900:00−13сз399578 0.0 1007264
03:00−16сз379779 0.1 1010155
06:00−18сз379878 0.0 1012161
09:00−17ссз369371 0.0 1014283
12:00−13сз358778 0.0 1015555
15:00−12сз468588 0.1 1016749
18:00−15ссз2593100 0.1 1017140
21:00−20ссз369887 0.1 1020121
10 марта, ср
ср1000:00−23сз369732 0.0 1021131
03:00−26сз359816 0.0 1022112
06:00−27сз25980 0.0 102393
09:00−23ссз35941 0.0 1025253
12:00−18ссз358617 0.0 1026491
15:00−15ссз35798 0.0 1025663
18:00−19ссз23890 0.0 102620
21:00−22сз12890 0.0 102720
11 марта, чт
чт1100:00−23з12901 0.0 102720
03:00−23юз129022 0.0 102820
06:00−22ююз229096 0.0 102720
09:00−19ю248585 0.0 1027185
12:00−13ююв478014 0.0 1025360
15:00−10ююв5109051 0.1 1023589
18:00−10ю41094100 0.5 1021582
21:00−10ююв41194100 0.8 1020370